ZHONGXING-3A

Last updated on Sat Sep 12 2026 00:03:05 GMT+0000 (Coordinated Universal Time)

1 60179U 24122A 26253.53233627 -.00000333 00000+0 00000+0 0 9991 2 60179 0.0187 336.4467 0002690 230.6206 75.7065 1.00270301 8169
UTC large
Height (km)
Speed (km/s)
/
Latitude / Longitude
Inclination (degrees)
Orbital Period (minutes)
Azimuth
Elevation
Range (km)
Doppler Factor

Next 0 passes for location: London (51.5072 / 0.1276)

No passes found over London.
ZHONGXING-3A